Regional Weather Roundup
Issued by NWS San Angelo, TX

Home | Current Version | Previous Version | Text Only | Print | Product List | Glossary On
Versions: 1 2 3 4 5 6 7 8 9 10 11 12 13 14 15 16 17 18 19 20 21 22 23 24 25 26 27 28 29 30 31 32 33 34 35 36 37 38 39 40 41 42 43 44 45 46 47 48 49 50
000
ASUS44 KSJT 111111
RWRSJT
WEST CENTRAL TEXAS REGIONAL WEATHER ROUNDUP
NATIONAL WEATHER SERVICE SAN ANGELO TX
500 AM CST THU FEB 11 2016

NOTE: "FAIR" INDICATES FEW OR NO CLOUDS BELOW 12,000 FEET WITH NO
SIGNIFICANT WEATHER AND/OR OBSTRUCTIONS TO VISIBILITY.

TXZ049-054-064>066-071>073-076>078-098-099-113-114-127-128-139-140-
154-155-168>170-111200
...LOCATIONS ACROSS WEST CENTRAL TEXAS...

CITY           SKY/WX    TMP DP  RH WIND       PRES   REMARKS
SAN ANGELO     CLEAR     53  26  35 SW9       30.10S
ABILENE        CLEAR     55  26  32 SW12      30.07R
DYESS AFB      CLEAR     59  26  28 S18       30.05S
JUNCTION       CLEAR     38  26  62 W5        30.14S WCI  34
SWEETWATER     CLEAR     55  24  29 SW21      30.10S
BROWNWOOD      CLEAR     39  27  60 CALM      30.11S
COLEMAN        SUNNY     53  26  35 SW7       30.10R
SONORA         CLEAR     34  25  69 CALM      30.18S
OZONA          FAIR      34  25  69 CALM      30.16S
BRADY          NOT AVBL
$$

TEXAS PANHANDLE/OKLAHOMA PANHANDLE

CITY           SKY/WX    TMP DP  RH WIND       PRES   REMARKS
AMARILLO       CLOUDY    36  19  50 N10       30.14R WCI  28
BORGER         PTCLDY    44  21  40 NE6       30.14R
CANADIAN       CLOUDY    38  25  59 CALM      30.12S
DALHART        CLOUDY    41  18  39 N12       30.18R WCI  34
DUMAS          CLOUDY    33  19  55 NW9       30.16R WCI  25
GUYMON         NOT AVBL
HEREFORD       NOT AVBL
PAMPA          CLOUDY    39  22  51 N5        30.14R WCI  36
PERRYTON       CLOUDY    37  27  68 NW9       30.15R WCI  30
$$

SOUTHERN PANHANDLE/SOUTH PLAINS/ROLLING PLAINS

CITY           SKY/WX    TMP DP  RH WIND       PRES   REMARKS
LUBBOCK        CLEAR     31  17  56 W6        30.08S WCI  25
SNYDER           N/A     45  24  43 SW8       30.10S
CHILDRESS      CLOUDY    46  21  37 NE5       30.06R
SEMINOLE       CLOUDY    36  19  50 W3        30.12S
$$

PERMIAN BASIN

CITY           SKY/WX    TMP DP  RH WIND       PRES   REMARKS
MIDLAND        CLEAR     43  24  47 SW6       30.11S WCI  39
ODESSA         CLOUDY    42  22  44 W7        30.12S WCI  38
WINK           CLOUDY    32  19  58 N6        30.12S WCI  26
$$

FAR WEST/SOUTHWEST MOUNTAINS/TRANS PECOS

CITY           SKY/WX    TMP DP  RH WIND       PRES   REMARKS
ALPINE         CLOUDY    49  15  25 SW5       30.27R
DRYDEN           N/A     42  21  43 W7        30.11F WCI  38
EL PASO        MOCLDY    40  17  39 N7        30.22S WCI  35
FORT STOCKTON  CLEAR     49  20  31 SW15      30.13F
GUADALUPE PASS CLEAR     47  14  26 SW13G22   30.23F
MARFA          CLOUDY    25  12  58 N5        30.25R WCI  19
PECOS          CLOUDY    40  19  41 W7        30.14S WCI  36
$$

DALLAS/FORT WORTH METROPLEX

CITY           SKY/WX    TMP DP  RH WIND       PRES   REMARKS
DFW AIRPORT    CLEAR     49  30  48 SW7       30.02R
FTW MEACHAM    CLEAR     57  28  33 SW7       30.03R
DAL-EXECUTIVE  CLEAR     59  29  31 SW12G20   30.02R
GRAND PRAIRIE  CLEAR     46  33  60 S7        30.05S
ADDISON        NOT AVBL
MESQUITE       SUNNY     44  33  66 S8        30.05R WCI  39
LANCASTER      SUNNY     47  31  54 CALM      30.05S
$$

NORTH CENTRAL TEXAS

CITY           SKY/WX    TMP DP  RH WIND       PRES   REMARKS
SHRMAN/DENISON SUNNY     45  32  59 SW9       30.04R
GAINESVILLE    CLEAR     51  27  40 SW3       30.05R
BRIDGEPORT     SUNNY     55  31  40 W3        30.05R
DENTON         CLEAR     43  30  60 N5        30.03R
WAXAHACHIE     SUNNY     54  33  44 W6        30.06R
GRANBURY       SUNNY     60  28  29 CALM      30.06R
$$

WESTERN NORTH TEXAS

CITY           SKY/WX    TMP DP  RH WIND       PRES   REMARKS
WICHITA FALLS  CLEAR     47  26  44 W7        30.04R
VERNON         SUNNY     43  23  44 NW10      30.05R WCI  38
BRECKENRIDGE   SUNNY     58  26  28 SW10      30.05S
COMANCHE       CLEAR     58  29  32 SW18G26   30.07S
$$

CENTRAL AND SOUTH CENTRAL TEXAS

CITY           SKY/WX    TMP DP  RH WIND       PRES   REMARKS
AUSTIN/BERGSTM CLEAR     55  32  41 SW5       30.14S
WACO           CLEAR     42  32  67 S8        30.08S WCI  37
HILLSBORO      SUNNY     47  31  53 S6        30.07S
TEMPLE         CLEAR     46  33  60 S8        30.11R
KILLEEN-GRAY   CLEAR     57  27  31 SW8       30.09R
FORT HOOD      CLEAR     55  29  37 W6        30.08R
GEORGETOWN     CLEAR     55  30  38 SW13      30.11S
LAGO VISTA     FAIR      57  30  35 SW10      30.14S
SAN MARCOS     CLEAR     46  34  61 SW7       30.16S
NEW BRAUNFELS  CLEAR     44  34  67 SW6       30.15S
RANDOLPH AFB   CLEAR     52  32  46 W6        30.16S
SAN ANTONIO    CLEAR     51  32  48 W5        30.16F
STINSON        CLEAR     42  34  73 CALM      30.15S
PLEASANTON     NOT AVBL
LA GRANGE      CLEAR     51  41  69 SW3       30.15R
GIDDINGS       SUNNY     47  40  74 S7        30.18S
$$

EAST TEXAS

CITY           SKY/WX    TMP DP  RH WIND       PRES   REMARKS
PARIS          CLEAR     48  30  49 SW9       30.03R
CLARKSVILLE    NOT AVBL
TYLER          CLEAR     56  38  50 SW13      30.06S
LONGVIEW       CLEAR     50  39  66 SW9       30.06R
PALESTINE      SUNNY     48  40  75 SE5       30.11S
NACOGDOCHES    PTCLDY    46  39  76 SW3       30.11S
$$

TEXAS HILL COUNTRY AND EDWARDS PLATEAU

CITY           SKY/WX    TMP DP  RH WIND       PRES   REMARKS
LLANO          SUNNY     37  32  81 CALM      30.16S
HORSESHOE BAY  FAIR      57  30  36 CALM      30.12F
KERRVILLE      CLEAR     33  30  88 CALM      30.16F
FREDERICKSBRG  CLEAR     40  28  62 CALM      30.15S
ROCKSPRINGS    SUNNY     52  28  40 S8        30.17S
HONDO          CLEAR     36  24  62 N8        30.18S WCI  30
UVALDE         SUNNY     39  30  71 NE5       30.16S WCI  36
DEL RIO        CLEAR     49  27  42 E10       30.11S
$$

SOUTHEAST TEXAS

CITY           SKY/WX    TMP DP  RH WIND       PRES   REMARKS
COLLEGE STN    CLEAR     51  40  65 S8        30.14S
CALDWELL       SUNNY     48  37  66 S8        30.16S
CROCKETT       MOSUNNY   50  39  66 S7        30.16R
BRENHAM        CLEAR     56  40  56 SW10      30.16S
HUNTSVILLE     PTCLDY    57  39  51 SW13G20   30.13S
CONROE         PTCLDY    53  46  77 SW7       30.17R
HOUSTON BUSH   CLEAR     57  48  72 SW8       30.17R
HOUSTON HOBBY  CLEAR     56  51  84 SW8       30.17S
PERLAND        CLEAR     55  51  86 SW6       30.19S
WHARTON        SUNNY     49  47  93 SW5       30.19S
$$

THE UPPER TEXAS COAST

CITY           SKY/WX    TMP DP  RH WIND       PRES   REMARKS
ORANGE         SUNNY     56  52  84 SW7       30.19R
PORT ARTHUR    CLEAR     51  50  96 SW5       30.17S
GALVESTON      CLEAR     57  56  96 SW9       30.19S
ANGLETON       CLEAR     58  54  86 SW8       30.18F
BAY CITY       SUNNY     55  53  94 SW5       30.19S
$$

TEXAS COASTAL BEND, RIO GRANDE PLAINS DEEP SOUTH TEXAS

CITY           SKY/WX    TMP DP  RH WIND       PRES   REMARKS
VICTORIA       CLEAR     52  45  77 SW10      30.19R
BEEVILLE       FAIR      48  45  87 S5        30.17S
ROCKPORT       CLEAR     61  51  70 S7        30.18S
PORT ARANSAS   SUNNY     59  55  87 S12       30.18S
PORT LAVACA    SUNNY     52  49  90 SW8       30.19S
CORPUS CHRISTI CLEAR     43  38  82 S8        30.18S WCI  38
KINGSVILLE NAS CLEAR     44  43  96 S6        30.18S
COTULLA        CLEAR     49  30  48 SE5       30.16S
LAREDO         CLEAR     53  35  50 SE9       30.16S
BROWNSVILLE    CLEAR     59  53  80 S12       30.21S
PORT ISABEL    PTCLDY    58  53  84 S8        30.20S
HEBBRONVILLE   NOT AVBL
MCALLEN        CLEAR     54  44  69 SE9       30.19S
WESLACO        CLEAR     56  48  72 S13G18    30.18F
FALFURRIAS     SUNNY     51  45  77 S3        30.18S
EDINBURG       SUNNY     60  47  62 S12       30.19S
$$



USA.gov is the U.S. government's official web portal to all federal, state and local government web resources and services.